ACA668 CYUL-CYHZ

Flight info

Callsign ACA668
Flight time N/A
Altitude 37000
Route SUXET DCT NOVUN DCT ESRAM DCT RABIK Q951 ANTOV DCT EBONY FUNDY5
Aircraft A320/M-SDE3FGHIRWY/LB1

Departure

Time 2026-05-06 18:49
Airport Montreal / Pierre Elliott Trudeau International Airport (CYUL)

Arrival

Time N/A
Airport Halifax / Stanfield International Airport (CYHZ)
Time Latitude Longitude Altitude Speed Heading
2026-05-06 18:01 45.45885 -73.74544 105 ft 0 kts 178°
2026-05-06 18:37 45.45887 -73.74544 133 ft 2 kts 178°
2026-05-06 18:37 45.45904 -73.74545 104 ft 2 kts 178°
2026-05-06 18:37 45.45921 -73.74546 104 ft 2 kts 178°
2026-05-06 18:37 45.45939 -73.74548 103 ft 3 kts 154°
2026-05-06 18:38 45.45953 -73.74559 105 ft 1 kts 127°
2026-05-06 18:38 45.45959 -73.74570 105 ft 2 kts 91°
2026-05-06 18:38 45.45957 -73.74593 102 ft 2 kts 83°
2026-05-06 18:38 45.45957 -73.74602 102 ft 0 kts 83°
2026-05-06 18:41 45.45958 -73.74586 102 ft 4 kts 84°
2026-05-06 18:41 45.45961 -73.74545 104 ft 1 kts 83°
2026-05-06 18:41 45.45961 -73.74543 104 ft 0 kts 83°
2026-05-06 18:41 45.45982 -73.74468 104 ft 12 kts 65°
2026-05-06 18:42 45.45989 -73.74362 103 ft 10 kts 116°
2026-05-06 18:42 45.45975 -73.74279 103 ft 8 kts 69°
2026-05-06 18:42 45.46016 -73.74219 102 ft 10 kts 43°
2026-05-06 18:42 45.46111 -73.74095 104 ft 24 kts 42°
2026-05-06 18:43 45.46235 -73.73932 104 ft 25 kts 42°
2026-05-06 18:43 45.46362 -73.73766 107 ft 25 kts 44°
2026-05-06 18:43 45.46490 -73.73598 107 ft 25 kts 43°
2026-05-06 18:43 45.46619 -73.73428 111 ft 26 kts 42°
2026-05-06 18:44 45.46751 -73.73256 113 ft 26 kts 43°
2026-05-06 18:44 45.46883 -73.73082 114 ft 26 kts 42°
2026-05-06 18:44 45.47018 -73.72906 116 ft 26 kts 43°
2026-05-06 18:44 45.47154 -73.72727 116 ft 27 kts 43°
2026-05-06 18:45 45.47294 -73.72543 116 ft 28 kts 42°
2026-05-06 18:45 45.47438 -73.72355 120 ft 28 kts 43°
2026-05-06 18:45 45.47584 -73.72162 118 ft 29 kts 41°
2026-05-06 18:45 45.47704 -73.72007 118 ft 15 kts 43°
2026-05-06 18:46 45.47777 -73.71911 120 ft 13 kts 42°
2026-05-06 18:46 45.47839 -73.71830 121 ft 11 kts 42°
2026-05-06 18:46 45.47874 -73.71744 122 ft 10 kts 98°
2026-05-06 18:46 45.47844 -73.71684 122 ft 5 kts 127°
2026-05-06 18:47 45.47839 -73.71674 120 ft 0 kts 127°
2026-05-06 18:48 45.47821 -73.71643 119 ft 11 kts 130°
2026-05-06 18:48 45.47767 -73.71561 121 ft 7 kts 138°
2026-05-06 18:48 45.47725 -73.71575 125 ft 11 kts 219°
2026-05-06 18:48 45.47622 -73.71708 125 ft 44 kts 222°
2026-05-06 18:49 45.47222 -73.72231 116 ft 109 kts 223°
2026-05-06 18:49 45.46524 -73.73143 116 ft 160 kts 223°
2026-05-06 18:49 45.45698 -73.74245 697 ft 160 kts 223°
2026-05-06 18:49 45.44890 -73.75339 1428 ft 160 kts 223°
2026-05-06 18:50 45.44077 -73.76446 1998 ft 166 kts 224°
2026-05-06 18:50 45.43185 -73.77659 2269 ft 189 kts 224°
2026-05-06 18:50 45.42178 -73.79031 2548 ft 212 kts 225°
2026-05-06 18:50 45.41048 -73.80555 2855 ft 236 kts 223°
2026-05-06 18:51 45.39544 -73.81726 3261 ft 260 kts 192°
2026-05-06 18:51 45.37721 -73.81575 3991 ft 269 kts 159°
2026-05-06 18:51 45.36220 -73.80007 4837 ft 274 kts 125°
2026-05-06 18:51 45.35421 -73.77535 5677 ft 278 kts 110°
2026-05-06 18:52 45.34783 -73.74917 6506 ft 282 kts 111°
2026-05-06 18:52 45.34148 -73.72249 7229 ft 289 kts 111°
2026-05-06 18:52 45.33500 -73.69516 7958 ft 295 kts 112°
2026-05-06 18:52 45.32833 -73.66723 8680 ft 302 kts 114°
2026-05-06 18:53 45.32147 -73.63871 9405 ft 308 kts 114°
2026-05-06 18:53 45.31446 -73.60999 10071 ft 315 kts 115°
2026-05-06 18:53 45.30698 -73.57970 10353 ft 337 kts 115°
2026-05-06 18:53 45.29888 -73.54721 10512 ft 361 kts 115°
2026-05-06 18:54 45.29028 -73.51245 10916 ft 374 kts 114°
2026-05-06 18:54 45.28167 -73.47729 11559 ft 379 kts 114°
2026-05-06 18:54 45.27311 -73.44221 12214 ft 384 kts 114°
2026-05-06 18:54 45.26431 -73.40623 12885 ft 388 kts 115°
2026-05-06 18:55 45.25536 -73.36988 13550 ft 392 kts 115°
2026-05-06 18:55 45.24627 -73.33314 14132 ft 396 kts 115°
2026-05-06 18:55 45.23709 -73.29611 14716 ft 400 kts 115°
2026-05-06 18:55 45.22780 -73.25876 15297 ft 404 kts 115°
2026-05-06 18:56 45.21840 -73.22105 15868 ft 407 kts 115°
2026-05-06 18:56 45.20999 -73.18237 16431 ft 416 kts 108°
2026-05-06 18:56 45.20600 -73.14127 17002 ft 426 kts 97°
2026-05-06 18:56 45.20653 -73.09893 17557 ft 433 kts 91°
2026-05-06 18:57 45.20789 -73.05621 18121 ft 436 kts 90°
2026-05-06 18:57 45.21187 -73.01320 18610 ft 444 kts 80°
2026-05-06 18:57 45.22069 -72.97096 19117 ft 449 kts 70°
2026-05-06 18:57 45.23431 -72.93093 19636 ft 453 kts 60°
2026-05-06 18:58 45.24994 -72.89203 20178 ft 456 kts 60°
2026-05-06 18:58 45.26563 -72.85282 20706 ft 458 kts 60°
2026-05-06 18:58 45.27988 -72.81229 21202 ft 460 kts 69°
2026-05-06 18:58 45.28959 -72.76892 21681 ft 461 kts 79°
2026-05-06 18:59 45.29450 -72.72393 22151 ft 461 kts 89°
2026-05-06 18:59 45.29627 -72.67831 22620 ft 463 kts 90°
2026-05-06 18:59 45.29797 -72.63246 23060 ft 466 kts 90°
2026-05-06 18:59 45.29977 -72.58633 23468 ft 469 kts 89°
2026-05-06 19:00 45.30202 -72.53992 23818 ft 473 kts 89°
2026-05-06 19:00 45.30468 -72.49328 24161 ft 476 kts 88°
2026-05-06 19:00 45.30757 -72.44633 24497 ft 478 kts 88°
2026-05-06 19:00 45.31048 -72.39923 24826 ft 480 kts 88°
2026-05-06 19:01 45.31327 -72.35185 25155 ft 482 kts 89°
2026-05-06 19:01 45.31590 -72.30424 25500 ft 484 kts 89°
2026-05-06 19:01 45.31838 -72.25645 25844 ft 486 kts 90°
2026-05-06 19:01 45.32082 -72.20848 26179 ft 488 kts 90°
2026-05-06 19:02 45.32323 -72.16025 26500 ft 490 kts 90°
2026-05-06 19:02 45.32567 -72.11195 26824 ft 492 kts 90°
2026-05-06 19:02 45.32817 -72.06335 27132 ft 494 kts 90°
2026-05-06 19:02 45.33074 -72.01469 27438 ft 495 kts 90°
2026-05-06 19:03 45.33332 -71.96575 27744 ft 497 kts 91°
2026-05-06 19:03 45.33581 -71.91676 28032 ft 498 kts 91°
2026-05-06 19:03 45.33827 -71.86759 28314 ft 500 kts 90°
2026-05-06 19:03 45.34171 -71.81829 28586 ft 503 kts 88°
2026-05-06 19:04 45.34655 -71.76886 28850 ft 506 kts 86°
2026-05-06 19:04 45.35236 -71.71935 29101 ft 509 kts 85°
2026-05-06 19:04 45.35861 -71.66973 29349 ft 510 kts 85°
2026-05-06 19:04 45.36479 -71.62002 29574 ft 512 kts 85°
2026-05-06 19:05 45.37071 -71.57001 29817 ft 512 kts 86°
2026-05-06 19:05 45.37629 -71.52003 30097 ft 511 kts 87°
2026-05-06 19:05 45.38157 -71.47009 30370 ft 510 kts 87°
2026-05-06 19:05 45.38667 -71.42022 30638 ft 510 kts 88°
2026-05-06 19:06 45.39174 -71.37027 30892 ft 509 kts 88°
2026-05-06 19:06 45.39686 -71.32043 31164 ft 509 kts 88°
2026-05-06 19:06 45.40205 -71.27060 31427 ft 509 kts 88°
2026-05-06 19:06 45.40727 -71.22078 31681 ft 509 kts 88°
2026-05-06 19:07 45.41246 -71.17099 31952 ft 509 kts 88°
2026-05-06 19:07 45.41588 -71.13808 32135 ft 508 kts 88°
2026-05-06 19:07 45.42266 -71.07142 32479 ft 506 kts 90°
2026-05-06 19:07 45.42447 -71.02183 32733 ft 498 kts 98°
2026-05-06 19:08 45.42183 -70.97313 32977 ft 490 kts 107°
2026-05-06 19:08 45.41623 -70.92553 33227 ft 487 kts 108°
2026-05-06 19:08 45.41048 -70.87800 33465 ft 487 kts 108°
2026-05-06 19:08 45.40474 -70.83045 33704 ft 488 kts 108°
2026-05-06 19:09 45.39903 -70.78291 33924 ft 488 kts 108°
2026-05-06 19:09 45.39330 -70.73529 34103 ft 489 kts 108°
2026-05-06 19:09 45.38752 -70.68758 34290 ft 489 kts 108°
2026-05-06 19:09 45.38174 -70.63987 34485 ft 490 kts 108°
2026-05-06 19:10 45.37595 -70.59204 34655 ft 491 kts 108°
2026-05-06 19:10 45.37014 -70.54420 34853 ft 491 kts 108°
2026-05-06 19:10 45.36429 -70.49629 35041 ft 492 kts 107°
2026-05-06 19:10 45.35850 -70.44900 35212 ft 492 kts 108°
2026-05-06 19:11 45.35251 -70.40051 35379 ft 492 kts 108°
2026-05-06 19:11 45.34858 -70.36875 35501 ft 492 kts 107°